Regional Weather Roundup
Issued by NWS New Orleans/Baton Rouge, LA

Home | Current Version | Previous Version | Text Only | Print | Product List | Glossary Off
Versions: 1 2 3 4 5 6 7 8 9 10 11 12 13 14 15 16 17 18 19 20 21 22 23 24 25 26 27 28 29 30 31 32 33 34 35 36 37 38 39 40 41 42 43 44 45 46 47 48 49 50

255
ASUS44 KLIX 290305
RWRLIX
NEW ORLEANS REGIONAL WEATHER ROUNDUP
NATIONAL WEATHER SERVICE NEW ORLEANS LA
900 PM CST FRI NOV 28 2014

NOTE: "FAIR" INDICATES FEW OR NO CLOUDS BELOW 12,000 FEET WITH NO
      SIGNIFICANT WEATHER AND/OR OBSTRUCTIONS TO VISIBILITY.
      SKY/WX - SKY CONDITION AND SIGNIFICANT WEATHER.
      TMP - AIR TEMPERATURE.     DP    - DEWPOINT TEMPERATURE.
      RH  - RELATIVE HUMIDITY.   PRES  - PRESSURE.
      HI  - HEAT INDEX.          WCI   - WIND CHILL INDEX.

*  THESE STATIONS ARE NOT NWS OR FAA STATIONS AND ARE NOT UNDER
   NWS QUALITY CONTROL.

LAZ038-040-048-061>063-065>067-069-290400-
SOUTHEAST LOUISIANA

CITY           SKY/WX    TMP DP  RH WIND       PRES   REMARKS
N.O. AUDUBON     N/A     52  47  84 MISG        N/A
N.O. INTL ARPT CLEAR     50  44  80 CALM      30.29S
N.O. LAKEFRONT CLEAR     50  44  80 SE6       30.30F
N.O. DOWNTOWN*   N/A     54  43  66 SE7       30.29F
SLIDELL        CLEAR     42  37  82 CALM      30.29S
BATON ROUGE    CLEAR     49  43  80 SE5       30.26F
BOOTHVILLE     CLEAR     52  49  89 CALM      30.30F
BELLE CHASSE   PTCLDY    43  40  89 CALM      30.29F
BOGALUSA*        N/A     42  37  83 CALM      30.29F
NEW ROADS*       N/A     50  41  71 SE8G16    30.24F
GONZALES*        N/A     47  44  87 CALM      30.27F
HAMMOND*       CLEAR     45  41  87 CALM      30.29F
HOUMA*         CLEAR     45  44  95 E3        30.28S
PORT FOURCHON* MOCLDY    61  54  77 SE7       30.31S

$$

MSZ070-080>082-290400-
SOUTHERN MISSISSIPPI

CITY           SKY/WX    TMP DP  RH WIND       PRES   REMARKS
MCCOMB         CLEAR     44  32  62 S8        30.24F
GULFPORT       CLEAR     41  37  86 CALM      30.29F
BILOXI         CLEAR     47  43  84 NE1       30.29F
PASCAGOULA     CLEAR     34  33  96 CALM      30.30F

$$

COASTAL OBSERVATIONS
LAKE AND NEARSHORE STATIONS

STATION/POSITION TIME  TEMP    WIND        PRES    WAVE
                       AIR SEA DIR/SP/G            HT/PER
                 (UTC) (F)     (DEG/KT/KT) (MB)    (FT/S)
PASCAGOULA       0300   55     150/  5/  6 1025.3
WAVELAND YACHT   0300   53     180/  6/  8 1024.8
GRAND ISLE       0300   59 59  140/  6/  8 1025.8
SOUTHWEST PASS   0300   60                 1025.6
NEW CANAL        0300   49 54  140/  2/  3 1026.0
SHELL BEACH      0300   52 53  110/  5/  6 1025.5

OFFSHORE STATIONS

STATION/POSITION TIME  TEMP    WIND        PRES    WAVE
                       AIR SEA DIR/SP/G            HT/PER
                 (UTC) (F)     (DEG/KT/KT) (MB)    (FT/S)
64 S DAUPHIN ISL 0159   59 70  110/  8/ 12 1026.6    2/ 5

$$




USA.gov is the U.S. government's official web portal to all federal, state and local government web resources and services.